Location: *
(45.9500°N, 9.0833°E)
Time: 06:09:35
(UTC+00:00)

SR - Pass Details

Date: 23 June 2021
Orbit: 577 x 878 km, 66.7° (Epoch: 24 July)

Event Time Altitude Azimuth Distance (km) Brightness Sun altitude
Rises 22:39:30 0° 330° (NNW) 3,322 ? -19.8°
Reaches altitude 10° 22:42:12 10° 338° (NNW) 2,341 ? -19.9°
Maximum altitude 22:47:11 38° 46° (NE) 1,110 ? -20.1°
Enters shadow 22:50:29 17° 107° (ESE) 1,721 ? -20.2°
Drops below altitude 10° 22:51:44 10° 115° (ESE) 2,140 - -20.2°
Sets 22:54:06 0° 124° (ESE) 3,003 - -20.3°
